GAOFEN 14 (47231 NORAD) Tracking and Keplerian Element Data
This shows tracking and keplerian element data for the satellite.
Feedback or suggestion? Click here.
Element | Value |
Catalog | 47231 |
Name | GAOFEN 14 |
Epoch Orbit | 1901 |
Epoch Day | 99.9042181 |
Epoch Year | 2021 |
RAAN | 176.9085 |
Inclination | 97.4228 |
Eccentricity | 0.0010532 |
Argument of Perigee | 174.5288 |
Mean Anonmoly | 239.6322 |
Mean Motion | 15.25622883 |
Decay Rate | 8.77E-06 |
L1 | 1 47231U 20092A 21099.90421810 .00000877 00000-0 37329-4 0 9996 |
L2 | 2 47231 97.4228 176.9085 0010532 174.5288 239.6322 15.25622883 19013 |
Live tracking and technical data element details for GAOFEN 14 (NORAD 47231). GAOFEN 14 can be tracked NOW for your location showing map with azimuth and elevation plus other details from your city location.
Track the satellite on the map from your city or location and see movement details for azimuth, elevation, latitude, longitude, range, height, and movement on the map or in text.
IsCatalogInMostPopularTable: catalog: 47231, numindb: 50
Update: records affected: 1
GetName: 47231 GAOFEN 14
Hit Count: updated at: Sat, 10 Apr 2021 19:10:53 GMT